User: anonymous   Login
Location: Unspecified
(0.0000°N, 0.0000°E)
Time: 00:46:29
(UTC+00:00)
Language:

STARLINK-34111 - Orbit

View from above orbital plane
View from above orbital plane
View from above satellite
View from above satellite

Ground track
Ground track

The orbit is defined by the following mean orbital elements,

1 64041U          26145.34831586 +.00000000 +00000-0 +50281-3 0 00003
2 64041  70.0006 281.2128 0003187 275.1962  84.8833 14.98332333    08
Epoch (UTC): 25 May 2026 08:21:34
Eccentricity: 0.0003187
inclination: 70.0006°
perigee height: 570 km
apogee height: 574 km
right ascension of ascending node: 281.2128°
argument of perigee: 275.1962°
revolutions per day: 14.98332333
mean anomaly at epoch: 84.8833°

The dashed part of the orbit path shows where the satellite is in the earth's shadow,  

DLR